Simultaneous Nadir Overpasses (SNOs) Predictions

Prediction of SNOs between GOES-16 and NPP Satellite Orbit:

Table of predicted SNOs for the next 14.0 days since TLE Epoch: 6/8/2024
Index Date Time (GOES-16) GOES-16 Lat,Lon NPP Lat,Lon Distance(km) Time Diff (sec)
1 06/08/2024 06:23:26 0.00, -75.20 -0.04, -74.95 27.95 80
2 06/10/2024 18:29:13 -0.00, -75.21 -0.13, -75.71 56.97 80
3 06/11/2024 18:07:47 0.00, -75.22 0.89, -71.17 461.09 80
4 06/13/2024 06:32:12 0.01, -75.24 0.27, -76.43 136.11 80
5 06/14/2024 06:10:45 0.00, -75.25 -0.75, -71.90 382.44 80
6 06/15/2024 18:35:19 -0.01, -75.27 -0.41, -77.19 218.29 80
7 06/16/2024 18:13:52 -0.00, -75.29 0.61, -72.66 300.60 80
8 06/18/2024 06:38:17 0.01, -75.31 0.59, -77.91 295.75 80
9 06/19/2024 06:16:50 -0.00, -75.33 -0.44, -73.37 223.20 80
10 06/20/2024 18:41:23 0.00, -75.35 -0.71, -78.67 377.21 80
11 06/21/2024 18:19:56 0.01, -75.37 0.27, -74.12 141.86 80
